ZPTAI SSCT-SSER

Flight info

Callsign ZPTAI
Flight time 2h 21m
Altitude FL055
Route KUDRI/N0100F080 IFR UTNIP NIRDA/N0100F065 VFR DCT
Aircraft C172/L-SG/C

Departure

Time 2026-05-03 21:25
Airport Engenheiro Gastão de Mesquita Filho Airport (SSCT)

Arrival

Time 2026-05-03 23:46
Airport Erechim Airport (SSER)
Time Latitude Longitude Altitude Speed Heading
2026-05-03 21:19 -23.68921 -52.64112 1841 ft 0 kts 43°
2026-05-03 21:21 -23.68933 -52.64126 1841 ft 12 kts 198°
2026-05-03 21:21 -23.69105 -52.64206 1841 ft 38 kts 202°
2026-05-03 21:22 -23.69308 -52.64307 1841 ft 29 kts 202°
2026-05-03 21:22 -23.69499 -52.64402 1841 ft 32 kts 198°
2026-05-03 21:22 -23.69620 -52.64466 1841 ft 5 kts 337°
2026-05-03 21:22 -23.69615 -52.64464 1841 ft 0 kts 29°
2026-05-03 21:23 -23.69492 -52.64399 1841 ft 45 kts 31°
2026-05-03 21:23 -23.69098 -52.64203 1841 ft 76 kts 26°
2026-05-03 21:23 -23.68596 -52.63950 1947 ft 77 kts 31°
2026-05-03 21:23 -23.68414 -52.63834 1988 ft 76 kts 46°
2026-05-03 21:24 -23.68403 -52.63350 2062 ft 73 kts 133°
2026-05-03 21:24 -23.68862 -52.63045 2193 ft 80 kts 142°
2026-05-03 21:24 -23.69344 -52.62693 2295 ft 86 kts 141°
2026-05-03 21:24 -23.69842 -52.62323 2380 ft 91 kts 142°
2026-05-03 21:25 -23.70369 -52.61916 2456 ft 94 kts 141°
2026-05-03 21:25 -23.70902 -52.61499 2523 ft 96 kts 141°
2026-05-03 21:25 -23.71449 -52.61069 2584 ft 98 kts 141°
2026-05-03 21:25 -23.71998 -52.60635 2660 ft 97 kts 140°
2026-05-03 21:26 -23.72526 -52.60204 2768 ft 94 kts 140°
2026-05-03 21:26 -23.73045 -52.59782 2880 ft 92 kts 140°
2026-05-03 21:26 -23.73547 -52.59361 2992 ft 91 kts 139°
2026-05-03 21:26 -23.74040 -52.58945 3107 ft 89 kts 139°
2026-05-03 21:27 -23.74524 -52.58532 3223 ft 88 kts 137°
2026-05-03 21:27 -23.74998 -52.58118 3337 ft 86 kts 137°
2026-05-03 21:27 -23.75463 -52.57712 3451 ft 85 kts 137°
2026-05-03 21:27 -23.75915 -52.57308 3564 ft 84 kts 136°
2026-05-03 21:28 -23.76359 -52.56907 3678 ft 82 kts 136°
2026-05-03 21:28 -23.76795 -52.56510 3794 ft 81 kts 139°
2026-05-03 21:28 -23.77224 -52.56118 3910 ft 80 kts 139°
2026-05-03 21:28 -23.77643 -52.55730 4026 ft 79 kts 139°
2026-05-03 21:29 -23.78054 -52.55341 4141 ft 78 kts 140°
2026-05-03 21:29 -23.78469 -52.54939 4236 ft 83 kts 142°
2026-05-03 21:29 -23.78917 -52.54504 4350 ft 89 kts 138°
2026-05-03 21:29 -23.79373 -52.54050 4507 ft 89 kts 131°
2026-05-03 21:30 -23.79942 -52.53772 4652 ft 93 kts 163°
2026-05-03 21:30 -23.80566 -52.53583 4769 ft 95 kts 159°
2026-05-03 21:30 -23.81208 -52.53374 4868 ft 98 kts 158°
2026-05-03 21:30 -23.81868 -52.53158 4960 ft 100 kts 159°
2026-05-03 21:31 -23.82534 -52.52949 5072 ft 99 kts 159°
2026-05-03 21:31 -23.83190 -52.52744 5200 ft 98 kts 159°
2026-05-03 21:31 -23.83840 -52.52541 5320 ft 97 kts 159°
2026-05-03 21:31 -23.84485 -52.52340 5440 ft 96 kts 159°
2026-05-03 21:32 -23.85123 -52.52140 5561 ft 96 kts 159°
2026-05-03 21:32 -23.85760 -52.51941 5682 ft 95 kts 159°
2026-05-03 21:32 -23.86390 -52.51743 5798 ft 95 kts 159°
2026-05-03 21:32 -23.87020 -52.51545 5917 ft 94 kts 159°
2026-05-03 21:33 -23.87650 -52.51346 6029 ft 94 kts 159°
2026-05-03 21:33 -23.88276 -52.51148 6146 ft 94 kts 159°
2026-05-03 21:33 -23.88901 -52.50950 6260 ft 93 kts 159°
2026-05-03 21:33 -23.89525 -52.50751 6369 ft 94 kts 159°
2026-05-03 21:34 -23.90144 -52.50554 6479 ft 93 kts 159°
2026-05-03 21:34 -23.90766 -52.50355 6587 ft 93 kts 159°
2026-05-03 21:34 -23.91384 -52.50157 6699 ft 92 kts 159°
2026-05-03 21:34 -23.92001 -52.49960 6801 ft 93 kts 159°
2026-05-03 21:35 -23.92621 -52.49761 6913 ft 92 kts 159°
2026-05-03 21:35 -23.93230 -52.49567 7025 ft 92 kts 159°
2026-05-03 21:35 -23.93843 -52.49373 7124 ft 93 kts 159°
2026-05-03 21:35 -23.94464 -52.49175 7222 ft 93 kts 159°
2026-05-03 21:36 -23.95087 -52.48976 7316 ft 94 kts 159°
2026-05-03 21:36 -23.95715 -52.48775 7415 ft 94 kts 159°
2026-05-03 21:36 -23.96341 -52.48574 7507 ft 94 kts 159°
2026-05-03 21:36 -23.96969 -52.48371 7601 ft 95 kts 159°
2026-05-03 21:37 -23.97603 -52.48165 7694 ft 95 kts 159°
2026-05-03 21:37 -23.98237 -52.47959 7778 ft 96 kts 161°
2026-05-03 21:37 -23.98875 -52.47757 7887 ft 95 kts 162°
2026-05-03 21:37 -23.99505 -52.47557 7988 ft 95 kts 162°
2026-05-03 21:38 -24.00150 -52.47352 8058 ft 97 kts 167°
2026-05-03 21:38 -24.00819 -52.47138 8065 ft 104 kts 167°
2026-05-03 21:38 -24.01535 -52.46915 8053 ft 110 kts 167°
2026-05-03 21:38 -24.02278 -52.46674 8036 ft 114 kts 167°
2026-05-03 21:39 -24.03049 -52.46428 8015 ft 117 kts 167°
2026-05-03 21:39 -24.03836 -52.46179 8006 ft 118 kts 167°
2026-05-03 21:39 -24.04628 -52.45930 8002 ft 119 kts 166°
2026-05-03 21:39 -24.05417 -52.45672 8000 ft 119 kts 166°
2026-05-03 21:40 -24.06209 -52.45412 8000 ft 119 kts 166°
2026-05-03 21:40 -24.06997 -52.45157 8000 ft 119 kts 166°
2026-05-03 21:40 -24.07791 -52.44902 8001 ft 119 kts 166°
2026-05-03 21:40 -24.08584 -52.44650 8001 ft 119 kts 162°
2026-05-03 21:41 -24.09383 -52.44398 8004 ft 119 kts 162°
2026-05-03 21:41 -24.10177 -52.44148 8005 ft 120 kts 162°
2026-05-03 21:41 -24.10976 -52.43897 8005 ft 120 kts 162°
2026-05-03 21:41 -24.11774 -52.43646 8004 ft 120 kts 162°
2026-05-03 21:42 -24.12574 -52.43395 8004 ft 120 kts 162°
2026-05-03 21:42 -24.13376 -52.43142 8004 ft 120 kts 162°
2026-05-03 21:42 -24.14174 -52.42891 8004 ft 120 kts 162°
2026-05-03 21:42 -24.14971 -52.42633 8004 ft 120 kts 162°
2026-05-03 21:43 -24.15771 -52.42368 8004 ft 120 kts 162°
2026-05-03 21:43 -24.16570 -52.42111 8004 ft 120 kts 162°
2026-05-03 21:43 -24.17363 -52.41847 8003 ft 120 kts 162°
2026-05-03 21:43 -24.18161 -52.41584 8004 ft 120 kts 162°
2026-05-03 21:44 -24.18961 -52.41320 8005 ft 120 kts 162°
2026-05-03 21:44 -24.19757 -52.41058 8004 ft 120 kts 163°
2026-05-03 21:44 -24.20557 -52.40793 8004 ft 120 kts 163°
2026-05-03 21:44 -24.21357 -52.40531 8004 ft 120 kts 163°
2026-05-03 21:45 -24.22159 -52.40277 8005 ft 120 kts 163°
2026-05-03 21:45 -24.22961 -52.40021 8005 ft 120 kts 163°
2026-05-03 21:45 -24.23759 -52.39765 8005 ft 120 kts 163°
2026-05-03 21:45 -24.24561 -52.39507 8005 ft 120 kts 163°
2026-05-03 21:46 -24.25361 -52.39248 8006 ft 120 kts 163°
2026-05-03 21:46 -24.26163 -52.38989 8008 ft 120 kts 162°
2026-05-03 21:46 -24.26960 -52.38726 8008 ft 120 kts 162°
2026-05-03 21:46 -24.27754 -52.38461 8008 ft 120 kts 162°
2026-05-03 21:47 -24.28554 -52.38195 8008 ft 120 kts 162°
2026-05-03 21:47 -24.29347 -52.37930 8007 ft 120 kts 162°
2026-05-03 21:47 -24.30147 -52.37663 8007 ft 120 kts 162°
2026-05-03 21:47 -24.30939 -52.37399 8007 ft 120 kts 162°
2026-05-03 21:48 -24.31737 -52.37133 8008 ft 120 kts 162°
2026-05-03 21:48 -24.32531 -52.36868 8008 ft 120 kts 162°
2026-05-03 21:48 -24.33328 -52.36602 8008 ft 120 kts 162°
2026-05-03 21:48 -24.34124 -52.36337 8008 ft 120 kts 162°
2026-05-03 21:49 -24.34920 -52.36072 8007 ft 120 kts 162°
2026-05-03 21:49 -24.35720 -52.35815 8007 ft 120 kts 162°
2026-05-03 21:49 -24.36519 -52.35558 8009 ft 120 kts 163°
2026-05-03 21:49 -24.37318 -52.35300 8008 ft 120 kts 163°
2026-05-03 21:50 -24.38118 -52.35041 8008 ft 120 kts 163°
2026-05-03 21:50 -24.38918 -52.34779 8008 ft 120 kts 163°
2026-05-03 21:50 -24.39716 -52.34514 8008 ft 120 kts 163°
2026-05-03 21:50 -24.40520 -52.34254 8008 ft 120 kts 163°
2026-05-03 21:51 -24.41322 -52.33998 8009 ft 120 kts 164°
2026-05-03 21:51 -24.42119 -52.33741 8009 ft 120 kts 164°
2026-05-03 21:51 -24.42920 -52.33480 8009 ft 120 kts 164°
2026-05-03 21:51 -24.43722 -52.33216 8010 ft 120 kts 162°
2026-05-03 21:52 -24.44519 -52.32953 8010 ft 120 kts 162°
2026-05-03 21:52 -24.45318 -52.32686 8009 ft 120 kts 162°
2026-05-03 21:52 -24.46115 -52.32421 8010 ft 120 kts 162°
2026-05-03 21:52 -24.46907 -52.32156 8011 ft 120 kts 162°
2026-05-03 21:53 -24.47707 -52.31890 8011 ft 120 kts 162°
2026-05-03 21:53 -24.48502 -52.31625 8011 ft 120 kts 162°
2026-05-03 21:53 -24.49299 -52.31359 8011 ft 120 kts 162°
2026-05-03 21:53 -24.50096 -52.31094 8011 ft 120 kts 162°
2026-05-03 21:54 -24.50888 -52.30829 8011 ft 120 kts 162°
2026-05-03 21:54 -24.51685 -52.30564 8011 ft 120 kts 162°
2026-05-03 21:54 -24.52485 -52.30297 8010 ft 120 kts 163°
2026-05-03 21:54 -24.53272 -52.30035 8023 ft 120 kts 163°
2026-05-03 21:55 -24.54074 -52.29770 8015 ft 120 kts 163°
2026-05-03 21:55 -24.54875 -52.29516 8013 ft 121 kts 163°
2026-05-03 21:55 -24.55679 -52.29261 8012 ft 121 kts 163°
2026-05-03 21:55 -24.56485 -52.29003 8012 ft 121 kts 163°
2026-05-03 21:56 -24.57287 -52.28746 8012 ft 120 kts 163°
2026-05-03 21:56 -24.58088 -52.28487 8012 ft 120 kts 163°
2026-05-03 21:56 -24.58889 -52.28227 8012 ft 120 kts 163°
2026-05-03 21:56 -24.59689 -52.27964 8012 ft 120 kts 163°
2026-05-03 21:57 -24.60493 -52.27699 8013 ft 120 kts 163°
2026-05-03 21:57 -24.61290 -52.27435 8014 ft 120 kts 162°
2026-05-03 21:57 -24.62088 -52.27172 8014 ft 120 kts 162°
2026-05-03 21:57 -24.62888 -52.26906 8013 ft 120 kts 162°
2026-05-03 21:58 -24.63683 -52.26641 8014 ft 120 kts 162°
2026-05-03 21:58 -24.64483 -52.26375 8019 ft 119 kts 165°
2026-05-03 21:58 -24.65273 -52.26123 8027 ft 119 kts 166°
2026-05-03 21:58 -24.66066 -52.25868 8028 ft 119 kts 165°
2026-05-03 21:59 -24.66863 -52.25603 8027 ft 120 kts 165°
2026-05-03 21:59 -24.67657 -52.25341 8027 ft 120 kts 165°
2026-05-03 21:59 -24.68453 -52.25078 8026 ft 120 kts 165°
2026-05-03 21:59 -24.69252 -52.24815 8026 ft 120 kts 165°
2026-05-03 22:00 -24.70049 -52.24553 8025 ft 120 kts 163°
2026-05-03 22:00 -24.70849 -52.24294 8021 ft 120 kts 163°
2026-05-03 22:00 -24.71649 -52.24033 8021 ft 120 kts 163°
2026-05-03 22:00 -24.72449 -52.23771 8022 ft 120 kts 164°
2026-05-03 22:01 -24.73249 -52.23505 8023 ft 120 kts 163°
2026-05-03 22:01 -24.74052 -52.23247 8024 ft 120 kts 165°
2026-05-03 22:01 -24.74852 -52.22990 8026 ft 120 kts 165°
2026-05-03 22:01 -24.75650 -52.22728 8027 ft 120 kts 165°
2026-05-03 22:02 -24.76445 -52.22470 8029 ft 120 kts 166°
2026-05-03 22:02 -24.77238 -52.22213 8031 ft 119 kts 166°
2026-05-03 22:02 -24.78030 -52.21955 8033 ft 119 kts 167°
2026-05-03 22:02 -24.78819 -52.21700 8041 ft 117 kts 168°
2026-05-03 22:03 -24.79572 -52.21454 8080 ft 110 kts 167°
2026-05-03 22:03 -24.80299 -52.21220 8059 ft 109 kts 167°
2026-05-03 22:03 -24.81021 -52.20988 8055 ft 107 kts 167°
2026-05-03 22:03 -24.81732 -52.20759 8056 ft 106 kts 167°
2026-05-03 22:04 -24.82434 -52.20532 8059 ft 105 kts 167°
2026-05-03 22:04 -24.83135 -52.20305 8060 ft 105 kts 167°
2026-05-03 22:04 -24.83835 -52.20079 8061 ft 105 kts 167°
2026-05-03 22:04 -24.84534 -52.19852 8061 ft 105 kts 167°
2026-05-03 22:05 -24.85233 -52.19625 8062 ft 105 kts 167°
2026-05-03 22:05 -24.85930 -52.19399 8061 ft 105 kts 167°
2026-05-03 22:05 -24.86628 -52.19173 8061 ft 105 kts 167°
2026-05-03 22:05 -24.87327 -52.18946 8061 ft 105 kts 167°
2026-05-03 22:06 -24.88030 -52.18714 8058 ft 106 kts 167°
2026-05-03 22:06 -24.88728 -52.18480 8060 ft 106 kts 167°
2026-05-03 22:06 -24.89431 -52.18246 8060 ft 106 kts 167°
2026-05-03 22:06 -24.90132 -52.18012 8071 ft 105 kts 167°
2026-05-03 22:07 -24.90832 -52.17777 8063 ft 106 kts 167°
2026-05-03 22:07 -24.91536 -52.17542 8060 ft 106 kts 167°
2026-05-03 22:07 -24.92243 -52.17305 8059 ft 106 kts 167°
2026-05-03 22:07 -24.92947 -52.17075 8059 ft 106 kts 167°
2026-05-03 22:08 -24.93654 -52.16852 8059 ft 106 kts 168°
2026-05-03 22:08 -24.94362 -52.16629 8060 ft 106 kts 168°
2026-05-03 22:08 -24.95069 -52.16406 8060 ft 106 kts 168°
2026-05-03 22:08 -24.95778 -52.16183 8061 ft 106 kts 168°
2026-05-03 22:09 -24.96481 -52.15954 8068 ft 105 kts 166°
2026-05-03 22:09 -24.97178 -52.15720 8070 ft 105 kts 166°
2026-05-03 22:09 -24.97871 -52.15487 8070 ft 104 kts 166°
2026-05-03 22:10 -24.99255 -52.15025 8070 ft 104 kts 166°
2026-05-03 22:10 -24.99951 -52.14805 8070 ft 104 kts 167°
2026-05-03 22:10 -25.00647 -52.14584 8068 ft 104 kts 167°
2026-05-03 22:10 -25.01343 -52.14364 8069 ft 104 kts 167°
2026-05-03 22:11 -25.02042 -52.14142 8070 ft 104 kts 167°
2026-05-03 22:11 -25.02735 -52.13923 8070 ft 104 kts 167°
2026-05-03 22:11 -25.03432 -52.13702 8069 ft 104 kts 167°
2026-05-03 22:11 -25.04129 -52.13482 8069 ft 104 kts 167°
2026-05-03 22:12 -25.04823 -52.13262 8070 ft 104 kts 167°
2026-05-03 22:12 -25.05518 -52.13038 8069 ft 104 kts 167°
2026-05-03 22:12 -25.06216 -52.12817 8069 ft 104 kts 167°
2026-05-03 22:12 -25.06910 -52.12594 8070 ft 104 kts 166°
2026-05-03 22:13 -25.07604 -52.12369 8069 ft 104 kts 167°
2026-05-03 22:13 -25.08300 -52.12148 8069 ft 104 kts 167°
2026-05-03 22:13 -25.08995 -52.11922 8069 ft 104 kts 166°
2026-05-03 22:13 -25.09690 -52.11700 8069 ft 104 kts 167°
2026-05-03 22:14 -25.10389 -52.11478 8069 ft 104 kts 167°
2026-05-03 22:14 -25.11085 -52.11257 8069 ft 104 kts 167°
2026-05-03 22:14 -25.11779 -52.11032 8068 ft 104 kts 167°
2026-05-03 22:14 -25.12477 -52.10809 8068 ft 104 kts 167°
2026-05-03 22:15 -25.13172 -52.10588 8068 ft 104 kts 167°
2026-05-03 22:15 -25.13870 -52.10366 8069 ft 104 kts 166°
2026-05-03 22:15 -25.14561 -52.10137 8074 ft 104 kts 166°
2026-05-03 22:15 -25.15250 -52.09908 8076 ft 104 kts 166°
2026-05-03 22:16 -25.15941 -52.09679 8077 ft 104 kts 166°
2026-05-03 22:16 -25.16631 -52.09450 8077 ft 104 kts 166°
2026-05-03 22:16 -25.17319 -52.09222 8077 ft 104 kts 166°
2026-05-03 22:16 -25.18009 -52.08994 8078 ft 104 kts 166°
2026-05-03 22:17 -25.18699 -52.08766 8078 ft 104 kts 166°
2026-05-03 22:17 -25.19392 -52.08537 8078 ft 104 kts 166°
2026-05-03 22:17 -25.20080 -52.08310 8078 ft 104 kts 166°
2026-05-03 22:17 -25.20771 -52.08082 8078 ft 104 kts 166°
2026-05-03 22:18 -25.21462 -52.07854 8078 ft 104 kts 166°
2026-05-03 22:18 -25.22154 -52.07625 8078 ft 104 kts 166°
2026-05-03 22:18 -25.22842 -52.07398 8078 ft 104 kts 166°
2026-05-03 22:18 -25.23533 -52.07169 8076 ft 104 kts 166°
2026-05-03 22:19 -25.24225 -52.06940 8077 ft 104 kts 166°
2026-05-03 22:19 -25.24916 -52.06710 8077 ft 104 kts 166°
2026-05-03 22:19 -25.25609 -52.06481 8077 ft 104 kts 166°
2026-05-03 22:19 -25.26298 -52.06252 8077 ft 104 kts 166°
2026-05-03 22:20 -25.26990 -52.06022 8077 ft 104 kts 166°
2026-05-03 22:20 -25.27679 -52.05793 8077 ft 104 kts 166°
2026-05-03 22:20 -25.28371 -52.05563 8077 ft 104 kts 166°
2026-05-03 22:20 -25.29064 -52.05333 8076 ft 104 kts 166°
2026-05-03 22:21 -25.29756 -52.05103 8076 ft 104 kts 166°
2026-05-03 22:21 -25.30444 -52.04874 8076 ft 104 kts 166°
2026-05-03 22:21 -25.31138 -52.04643 8076 ft 104 kts 166°
2026-05-03 22:21 -25.31825 -52.04417 8082 ft 103 kts 165°
2026-05-03 22:22 -25.32508 -52.04194 8076 ft 103 kts 165°
2026-05-03 22:22 -25.33192 -52.03973 8075 ft 102 kts 165°
2026-05-03 22:22 -25.33873 -52.03754 8076 ft 102 kts 165°
2026-05-03 22:22 -25.34552 -52.03536 8076 ft 102 kts 165°
2026-05-03 22:23 -25.35227 -52.03308 8077 ft 102 kts 163°
2026-05-03 22:23 -25.35905 -52.03077 8077 ft 102 kts 162°
2026-05-03 22:23 -25.36576 -52.02850 8078 ft 101 kts 163°
2026-05-03 22:23 -25.37249 -52.02620 8078 ft 101 kts 163°
2026-05-03 22:24 -25.37920 -52.02391 8078 ft 101 kts 163°
2026-05-03 22:24 -25.38593 -52.02162 8078 ft 101 kts 163°
2026-05-03 22:24 -25.39265 -52.01933 8078 ft 101 kts 163°
2026-05-03 22:24 -25.39935 -52.01704 8078 ft 101 kts 163°
2026-05-03 22:25 -25.40608 -52.01478 8078 ft 101 kts 163°
2026-05-03 22:25 -25.41285 -52.01258 8077 ft 101 kts 163°
2026-05-03 22:25 -25.41959 -52.01038 8077 ft 101 kts 163°
2026-05-03 22:25 -25.42631 -52.00821 8078 ft 101 kts 163°
2026-05-03 22:26 -25.43308 -52.00601 8078 ft 101 kts 163°
2026-05-03 22:26 -25.43982 -52.00383 8078 ft 101 kts 163°
2026-05-03 22:26 -25.44655 -52.00166 8078 ft 101 kts 163°
2026-05-03 22:26 -25.45331 -51.99947 8078 ft 101 kts 163°
2026-05-03 22:27 -25.46003 -51.99730 8078 ft 101 kts 163°
2026-05-03 22:27 -25.46680 -51.99512 8078 ft 101 kts 163°
2026-05-03 22:27 -25.47353 -51.99296 8078 ft 101 kts 163°
2026-05-03 22:27 -25.48028 -51.99079 8079 ft 101 kts 163°
2026-05-03 22:28 -25.48701 -51.98854 8079 ft 101 kts 163°
2026-05-03 22:28 -25.49372 -51.98627 8080 ft 101 kts 162°
2026-05-03 22:28 -25.50048 -51.98404 8084 ft 101 kts 163°
2026-05-03 22:28 -25.50718 -51.98182 8084 ft 101 kts 163°
2026-05-03 22:29 -25.51392 -51.97959 8084 ft 101 kts 163°
2026-05-03 22:29 -25.52068 -51.97736 8083 ft 101 kts 163°
2026-05-03 22:29 -25.52744 -51.97512 8083 ft 101 kts 163°
2026-05-03 22:29 -25.53416 -51.97289 8083 ft 101 kts 163°
2026-05-03 22:30 -25.54092 -51.97065 8083 ft 101 kts 163°
2026-05-03 22:30 -25.54765 -51.96842 8083 ft 101 kts 163°
2026-05-03 22:30 -25.55441 -51.96617 8083 ft 101 kts 163°
2026-05-03 22:30 -25.56115 -51.96394 8083 ft 101 kts 163°
2026-05-03 22:31 -25.56792 -51.96169 8083 ft 101 kts 163°
2026-05-03 22:31 -25.57464 -51.95945 8083 ft 101 kts 163°
2026-05-03 22:31 -25.58139 -51.95721 8083 ft 101 kts 163°
2026-05-03 22:31 -25.58813 -51.95496 8083 ft 101 kts 163°
2026-05-03 22:32 -25.59488 -51.95271 8083 ft 101 kts 163°
2026-05-03 22:32 -25.60162 -51.95047 8083 ft 101 kts 163°
2026-05-03 22:32 -25.60838 -51.94822 8083 ft 101 kts 163°
2026-05-03 22:32 -25.61511 -51.94598 8083 ft 101 kts 163°
2026-05-03 22:33 -25.62188 -51.94372 8083 ft 101 kts 163°
2026-05-03 22:33 -25.62860 -51.94149 8083 ft 101 kts 162°
2026-05-03 22:33 -25.63535 -51.93925 8083 ft 101 kts 162°
2026-05-03 22:33 -25.64212 -51.93701 8084 ft 101 kts 162°
2026-05-03 22:34 -25.64887 -51.93477 8084 ft 101 kts 162°
2026-05-03 22:34 -25.65562 -51.93254 8084 ft 101 kts 162°
2026-05-03 22:34 -25.66237 -51.93032 8085 ft 101 kts 162°
2026-05-03 22:34 -25.66911 -51.92808 8086 ft 101 kts 162°
2026-05-03 22:35 -25.67583 -51.92580 8090 ft 101 kts 162°
2026-05-03 22:35 -25.68259 -51.92349 8090 ft 102 kts 162°
2026-05-03 22:35 -25.68930 -51.92120 8089 ft 102 kts 162°
2026-05-03 22:35 -25.69608 -51.91889 8089 ft 102 kts 162°
2026-05-03 22:36 -25.70281 -51.91659 8089 ft 102 kts 162°
2026-05-03 22:36 -25.70962 -51.91441 8089 ft 102 kts 162°
2026-05-03 22:36 -25.71640 -51.91224 8089 ft 102 kts 163°
2026-05-03 22:36 -25.72321 -51.91005 8087 ft 102 kts 163°
2026-05-03 22:37 -25.73001 -51.90787 8088 ft 102 kts 163°
2026-05-03 22:37 -25.73680 -51.90569 8088 ft 102 kts 163°
2026-05-03 22:37 -25.74355 -51.90344 8089 ft 102 kts 162°
2026-05-03 22:37 -25.75032 -51.90122 8088 ft 102 kts 162°
2026-05-03 22:38 -25.75708 -51.89897 8088 ft 102 kts 162°
2026-05-03 22:38 -25.76390 -51.89678 8088 ft 102 kts 163°
2026-05-03 22:38 -25.77066 -51.89453 8088 ft 102 kts 162°
2026-05-03 22:38 -25.77742 -51.89235 8088 ft 102 kts 162°
2026-05-03 22:39 -25.78422 -51.89011 8088 ft 102 kts 162°
2026-05-03 22:39 -25.79098 -51.88791 8088 ft 102 kts 162°
2026-05-03 22:39 -25.79778 -51.88569 8088 ft 102 kts 162°
2026-05-03 22:39 -25.80451 -51.88348 8107 ft 100 kts 163°
2026-05-03 22:40 -25.81112 -51.88126 8125 ft 100 kts 162°
2026-05-03 22:40 -25.81786 -51.87900 8102 ft 102 kts 163°
2026-05-03 22:40 -25.82467 -51.87671 8091 ft 103 kts 163°
2026-05-03 22:40 -25.83149 -51.87441 8087 ft 103 kts 163°
2026-05-03 22:41 -25.83831 -51.87212 8086 ft 102 kts 163°
2026-05-03 22:41 -25.84509 -51.86987 8087 ft 102 kts 162°
2026-05-03 22:41 -25.85189 -51.86768 8092 ft 102 kts 162°
2026-05-03 22:41 -25.85864 -51.86540 8093 ft 102 kts 162°
2026-05-03 22:42 -25.86542 -51.86308 8094 ft 102 kts 162°
2026-05-03 22:42 -25.87215 -51.86078 8094 ft 102 kts 162°
2026-05-03 22:42 -25.87894 -51.85846 8094 ft 102 kts 162°
2026-05-03 22:42 -25.88573 -51.85615 8094 ft 102 kts 162°
2026-05-03 22:43 -25.89248 -51.85386 8094 ft 102 kts 162°
2026-05-03 22:43 -25.89927 -51.85162 8095 ft 102 kts 162°
2026-05-03 22:43 -25.90610 -51.84937 8094 ft 102 kts 162°
2026-05-03 22:43 -25.91290 -51.84711 8094 ft 102 kts 162°
2026-05-03 22:44 -25.91966 -51.84488 8095 ft 102 kts 162°
2026-05-03 22:44 -25.92650 -51.84265 8095 ft 102 kts 162°
2026-05-03 22:44 -25.93330 -51.84041 8095 ft 102 kts 162°
2026-05-03 22:44 -25.94010 -51.83826 8094 ft 102 kts 163°
2026-05-03 22:45 -25.94691 -51.83603 8095 ft 102 kts 162°
2026-05-03 22:45 -25.95372 -51.83382 8094 ft 102 kts 162°
2026-05-03 22:45 -25.96052 -51.83158 8094 ft 102 kts 162°
2026-05-03 22:45 -25.96732 -51.82934 8095 ft 102 kts 162°
2026-05-03 22:46 -25.97415 -51.82713 8094 ft 102 kts 162°
2026-05-03 22:46 -25.98094 -51.82491 8094 ft 102 kts 162°
2026-05-03 22:46 -25.98774 -51.82266 8094 ft 102 kts 162°
2026-05-03 22:46 -25.99455 -51.82045 8094 ft 102 kts 162°
2026-05-03 22:47 -26.00136 -51.81823 8094 ft 102 kts 162°
2026-05-03 22:47 -26.00816 -51.81598 8094 ft 102 kts 162°
2026-05-03 22:47 -26.01496 -51.81374 8094 ft 102 kts 162°
2026-05-03 22:47 -26.02177 -51.81153 8095 ft 102 kts 162°
2026-05-03 22:48 -26.02859 -51.80933 8100 ft 102 kts 162°
2026-05-03 22:48 -26.03541 -51.80712 8101 ft 102 kts 162°
2026-05-03 22:48 -26.04224 -51.80486 8101 ft 103 kts 161°
2026-05-03 22:48 -26.04907 -51.80262 8101 ft 103 kts 161°
2026-05-03 22:49 -26.05592 -51.80033 8101 ft 103 kts 161°
2026-05-03 22:49 -26.06274 -51.79807 8101 ft 103 kts 161°
2026-05-03 22:49 -26.06962 -51.79582 8102 ft 103 kts 160°
2026-05-03 22:49 -26.07642 -51.79357 8117 ft 103 kts 161°
2026-05-03 22:50 -26.08343 -51.79447 8135 ft 107 kts 202°
2026-05-03 22:50 -26.09005 -51.79804 8155 ft 107 kts 200°
2026-05-03 22:50 -26.09690 -51.80151 8119 ft 109 kts 200°
2026-05-03 22:50 -26.10382 -51.80500 8103 ft 110 kts 200°
2026-05-03 22:51 -26.11073 -51.80849 8099 ft 109 kts 200°
2026-05-03 22:51 -26.11757 -51.81195 8098 ft 108 kts 200°
2026-05-03 22:51 -26.12441 -51.81541 8100 ft 108 kts 200°
2026-05-03 22:51 -26.13120 -51.81885 8102 ft 108 kts 200°
2026-05-03 22:52 -26.13798 -51.82229 8102 ft 108 kts 200°
2026-05-03 22:52 -26.14477 -51.82574 8102 ft 108 kts 200°
2026-05-03 22:52 -26.15158 -51.82919 8102 ft 108 kts 200°
2026-05-03 22:52 -26.15835 -51.83263 8102 ft 108 kts 200°
2026-05-03 22:53 -26.16516 -51.83608 8102 ft 108 kts 200°
2026-05-03 22:53 -26.17196 -51.83953 8102 ft 108 kts 200°
2026-05-03 22:53 -26.17876 -51.84298 8102 ft 108 kts 200°
2026-05-03 22:53 -26.18555 -51.84642 8102 ft 108 kts 200°
2026-05-03 22:54 -26.19232 -51.84986 8101 ft 108 kts 199°
2026-05-03 22:54 -26.19914 -51.85335 8108 ft 108 kts 200°
2026-05-03 22:54 -26.20595 -51.85687 8116 ft 108 kts 200°
2026-05-03 22:54 -26.21277 -51.86038 8117 ft 109 kts 200°
2026-05-03 22:55 -26.21963 -51.86391 8116 ft 109 kts 200°
2026-05-03 22:55 -26.22648 -51.86744 8114 ft 109 kts 200°
2026-05-03 22:55 -26.23337 -51.87098 8114 ft 109 kts 200°
2026-05-03 22:55 -26.24027 -51.87453 8113 ft 110 kts 200°
2026-05-03 22:56 -26.24719 -51.87809 8113 ft 110 kts 200°
2026-05-03 22:56 -26.25408 -51.88164 8112 ft 110 kts 200°
2026-05-03 22:56 -26.26099 -51.88519 8112 ft 110 kts 200°
2026-05-03 22:56 -26.26790 -51.88874 8111 ft 110 kts 200°
2026-05-03 22:57 -26.27481 -51.89230 8111 ft 110 kts 200°
2026-05-03 22:57 -26.28172 -51.89585 8111 ft 110 kts 200°
2026-05-03 22:57 -26.28864 -51.89940 8110 ft 110 kts 200°
2026-05-03 22:57 -26.29556 -51.90296 8109 ft 110 kts 200°
2026-05-03 22:58 -26.30246 -51.90650 8110 ft 110 kts 200°
2026-05-03 22:58 -26.30939 -51.91007 8110 ft 110 kts 200°
2026-05-03 22:58 -26.31630 -51.91361 8110 ft 110 kts 200°
2026-05-03 22:58 -26.32322 -51.91717 8109 ft 110 kts 200°
2026-05-03 22:59 -26.33012 -51.92073 8112 ft 110 kts 200°
2026-05-03 22:59 -26.33703 -51.92428 8112 ft 110 kts 200°
2026-05-03 22:59 -26.34396 -51.92785 8112 ft 110 kts 200°
2026-05-03 22:59 -26.35088 -51.93141 8112 ft 110 kts 200°
2026-05-03 23:00 -26.35781 -51.93498 8113 ft 110 kts 200°
2026-05-03 23:00 -26.36475 -51.93856 8113 ft 110 kts 200°
2026-05-03 23:00 -26.37173 -51.94212 8109 ft 111 kts 199°
2026-05-03 23:00 -26.37870 -51.94570 8131 ft 110 kts 199°
2026-05-03 23:01 -26.38573 -51.94920 8139 ft 111 kts 199°
2026-05-03 23:01 -26.39277 -51.95282 8129 ft 112 kts 200°
2026-05-03 23:01 -26.39988 -51.95649 8123 ft 113 kts 200°
2026-05-03 23:01 -26.40700 -51.96016 8121 ft 113 kts 200°
2026-05-03 23:02 -26.41409 -51.96382 8120 ft 113 kts 200°
2026-05-03 23:02 -26.42120 -51.96748 8119 ft 113 kts 200°
2026-05-03 23:02 -26.42826 -51.97112 8119 ft 113 kts 200°
2026-05-03 23:02 -26.43538 -51.97480 8120 ft 113 kts 200°
2026-05-03 23:03 -26.44247 -51.97846 8120 ft 113 kts 200°
2026-05-03 23:03 -26.44953 -51.98210 8120 ft 113 kts 200°
2026-05-03 23:03 -26.45666 -51.98578 8118 ft 113 kts 200°
2026-05-03 23:03 -26.46382 -51.98946 8118 ft 114 kts 200°
2026-05-03 23:04 -26.47103 -51.99314 8121 ft 114 kts 200°
2026-05-03 23:04 -26.47824 -51.99682 8122 ft 115 kts 200°
2026-05-03 23:04 -26.48554 -52.00053 8122 ft 116 kts 200°
2026-05-03 23:04 -26.49287 -52.00424 8122 ft 116 kts 200°
2026-05-03 23:05 -26.50022 -52.00793 8123 ft 117 kts 200°
2026-05-03 23:05 -26.50754 -52.01163 8123 ft 117 kts 200°
2026-05-03 23:05 -26.51499 -52.01548 8124 ft 118 kts 201°
2026-05-03 23:05 -26.52241 -52.01931 8125 ft 118 kts 201°
2026-05-03 23:06 -26.52986 -52.02312 8125 ft 118 kts 201°
2026-05-03 23:06 -26.53735 -52.02694 8125 ft 119 kts 201°
2026-05-03 23:06 -26.54485 -52.03074 8124 ft 119 kts 202°
2026-05-03 23:06 -26.55245 -52.03458 8127 ft 120 kts 203°
2026-05-03 23:07 -26.56002 -52.03852 8133 ft 121 kts 204°
2026-05-03 23:07 -26.56763 -52.04250 8133 ft 121 kts 204°
2026-05-03 23:07 -26.57527 -52.04650 8132 ft 122 kts 204°
2026-05-03 23:07 -26.58293 -52.05050 8131 ft 122 kts 204°
2026-05-03 23:08 -26.59056 -52.05448 8131 ft 122 kts 204°
2026-05-03 23:08 -26.59823 -52.05849 8131 ft 122 kts 204°
2026-05-03 23:08 -26.60593 -52.06250 8131 ft 122 kts 204°
2026-05-03 23:08 -26.61357 -52.06648 8131 ft 122 kts 204°
2026-05-03 23:09 -26.62128 -52.07050 8131 ft 122 kts 204°
2026-05-03 23:09 -26.62895 -52.07449 8131 ft 122 kts 204°
2026-05-03 23:09 -26.63660 -52.07846 8132 ft 122 kts 204°
2026-05-03 23:09 -26.64431 -52.08247 8132 ft 122 kts 204°
2026-05-03 23:10 -26.65199 -52.08645 8132 ft 122 kts 204°
2026-05-03 23:10 -26.65967 -52.09043 8132 ft 122 kts 204°
2026-05-03 23:10 -26.66736 -52.09442 8132 ft 122 kts 204°
2026-05-03 23:10 -26.67504 -52.09840 8130 ft 122 kts 204°
2026-05-03 23:11 -26.68031 -52.10114 8082 ft 126 kts 204°
2026-05-03 23:11 -26.68820 -52.10525 8019 ft 128 kts 204°
2026-05-03 23:11 -26.69628 -52.10949 7996 ft 127 kts 204°
2026-05-03 23:11 -26.70416 -52.11364 7991 ft 125 kts 204°
2026-05-03 23:12 -26.71193 -52.11766 7994 ft 123 kts 203°
2026-05-03 23:12 -26.71969 -52.12171 7997 ft 122 kts 204°
2026-05-03 23:12 -26.72738 -52.12573 8000 ft 122 kts 204°
2026-05-03 23:12 -26.73505 -52.12973 8002 ft 122 kts 204°
2026-05-03 23:13 -26.74269 -52.13370 8002 ft 122 kts 204°
2026-05-03 23:13 -26.75037 -52.13768 8003 ft 122 kts 204°
2026-05-03 23:13 -26.75805 -52.14167 8003 ft 122 kts 204°
2026-05-03 23:13 -26.76578 -52.14567 8003 ft 122 kts 204°
2026-05-03 23:14 -26.77343 -52.14963 8003 ft 122 kts 204°
2026-05-03 23:14 -26.78116 -52.15362 8003 ft 122 kts 204°
2026-05-03 23:14 -26.78881 -52.15757 8004 ft 122 kts 204°
2026-05-03 23:14 -26.79651 -52.16154 8003 ft 122 kts 204°
2026-05-03 23:15 -26.80420 -52.16551 8003 ft 122 kts 204°
2026-05-03 23:15 -26.81194 -52.16951 8003 ft 122 kts 204°
2026-05-03 23:15 -26.81957 -52.17360 8003 ft 122 kts 205°
2026-05-03 23:15 -26.82723 -52.17769 8004 ft 122 kts 204°
2026-05-03 23:16 -26.83487 -52.18177 8003 ft 122 kts 205°
2026-05-03 23:16 -26.84252 -52.18585 8004 ft 122 kts 204°
2026-05-03 23:16 -26.84992 -52.18980 8004 ft 122 kts 205°
2026-05-03 23:16 -26.85764 -52.19395 8004 ft 122 kts 205°
2026-05-03 23:17 -26.86548 -52.19810 8004 ft 122 kts 205°
2026-05-03 23:17 -26.87287 -52.20206 8004 ft 122 kts 205°
2026-05-03 23:17 -26.88058 -52.20619 8004 ft 122 kts 204°
2026-05-03 23:17 -26.88824 -52.21023 8004 ft 122 kts 205°
2026-05-03 23:18 -26.89590 -52.21433 8004 ft 122 kts 205°
2026-05-03 23:18 -26.90355 -52.21841 8005 ft 122 kts 205°
2026-05-03 23:18 -26.91119 -52.22249 8005 ft 122 kts 205°
2026-05-03 23:18 -26.91885 -52.22657 8005 ft 122 kts 205°
2026-05-03 23:19 -26.92290 -52.22873 8005 ft 122 kts 205°
2026-05-03 23:19 -26.93057 -52.23278 8005 ft 122 kts 205°
2026-05-03 23:19 -26.93823 -52.23685 8005 ft 122 kts 205°
2026-05-03 23:19 -26.94589 -52.24094 8005 ft 122 kts 205°
2026-05-03 23:20 -26.95354 -52.24502 8005 ft 122 kts 205°
2026-05-03 23:20 -26.96117 -52.24909 8005 ft 122 kts 205°
2026-05-03 23:20 -26.96885 -52.25319 8005 ft 122 kts 205°
2026-05-03 23:20 -26.97648 -52.25726 8005 ft 122 kts 205°
2026-05-03 23:21 -26.98416 -52.26135 8005 ft 122 kts 205°
2026-05-03 23:21 -26.99181 -52.26542 8006 ft 122 kts 205°
2026-05-03 23:21 -26.99950 -52.26945 8009 ft 122 kts 206°
2026-05-03 23:21 -27.00725 -52.27310 8006 ft 122 kts 203°
2026-05-03 23:22 -27.02260 -52.28107 8007 ft 122 kts 205°
2026-05-03 23:22 -27.02925 -52.28450 8005 ft 122 kts 201°
2026-05-03 23:22 -27.03718 -52.28507 7941 ft 125 kts 171°
2026-05-03 23:23 -27.04599 -52.28421 7808 ft 131 kts 173°
2026-05-03 23:23 -27.05523 -52.28338 7656 ft 135 kts 173°
2026-05-03 23:23 -27.06470 -52.28255 7493 ft 137 kts 173°
2026-05-03 23:23 -27.07425 -52.28172 7324 ft 138 kts 173°
2026-05-03 23:24 -27.08382 -52.28092 7152 ft 139 kts 173°
2026-05-03 23:24 -27.09351 -52.28014 6973 ft 140 kts 178°
2026-05-03 23:24 -27.10311 -52.27941 6821 ft 136 kts 179°
2026-05-03 23:24 -27.11229 -52.27876 6654 ft 131 kts 179°
2026-05-03 23:25 -27.12128 -52.27809 6528 ft 126 kts 178°
2026-05-03 23:25 -27.12971 -52.27743 6478 ft 114 kts 178°
2026-05-03 23:25 -27.13705 -52.27694 6436 ft 98 kts 179°
2026-05-03 23:25 -27.14343 -52.27660 6434 ft 87 kts 179°
2026-05-03 23:26 -27.14960 -52.27630 6494 ft 90 kts 179°
2026-05-03 23:26 -27.15603 -52.27599 6531 ft 96 kts 179°
2026-05-03 23:26 -27.16289 -52.27565 6531 ft 102 kts 179°
2026-05-03 23:26 -27.17009 -52.27531 6519 ft 105 kts 180°
2026-05-03 23:27 -27.17746 -52.27498 6510 ft 107 kts 180°
2026-05-03 23:27 -27.18491 -52.27465 6504 ft 108 kts 180°
2026-05-03 23:27 -27.19238 -52.27431 6502 ft 108 kts 180°
2026-05-03 23:27 -27.19982 -52.27399 6501 ft 108 kts 180°
2026-05-03 23:28 -27.20732 -52.27365 6500 ft 108 kts 180°
2026-05-03 23:28 -27.21478 -52.27333 6501 ft 108 kts 180°
2026-05-03 23:28 -27.22225 -52.27312 6501 ft 107 kts 181°
2026-05-03 23:28 -27.22971 -52.27295 6500 ft 108 kts 181°
2026-05-03 23:29 -27.23715 -52.27278 6498 ft 108 kts 181°
2026-05-03 23:29 -27.24463 -52.27261 6499 ft 107 kts 181°
2026-05-03 23:29 -27.25205 -52.27244 6500 ft 107 kts 181°
2026-05-03 23:29 -27.25953 -52.27227 6498 ft 107 kts 181°
2026-05-03 23:30 -27.26699 -52.27210 6498 ft 107 kts 181°
2026-05-03 23:30 -27.27445 -52.27193 6499 ft 107 kts 181°
2026-05-03 23:30 -27.28190 -52.27176 6499 ft 107 kts 181°
2026-05-03 23:30 -27.28935 -52.27160 6499 ft 107 kts 181°
2026-05-03 23:31 -27.29679 -52.27143 6499 ft 107 kts 181°
2026-05-03 23:31 -27.30425 -52.27126 6499 ft 107 kts 181°
2026-05-03 23:31 -27.31167 -52.27109 6499 ft 107 kts 181°
2026-05-03 23:31 -27.31915 -52.27092 6499 ft 107 kts 181°
2026-05-03 23:32 -27.32661 -52.27076 6499 ft 107 kts 181°
2026-05-03 23:32 -27.33405 -52.27059 6499 ft 107 kts 181°
2026-05-03 23:32 -27.34151 -52.27045 6499 ft 107 kts 181°
2026-05-03 23:32 -27.34896 -52.27042 6500 ft 107 kts 181°
2026-05-03 23:33 -27.35640 -52.27041 6500 ft 107 kts 181°
2026-05-03 23:33 -27.36385 -52.27040 6499 ft 107 kts 181°
2026-05-03 23:33 -27.37131 -52.27038 6499 ft 107 kts 181°
2026-05-03 23:33 -27.37877 -52.27037 6500 ft 107 kts 181°
2026-05-03 23:34 -27.38622 -52.27036 6500 ft 107 kts 181°
2026-05-03 23:34 -27.39364 -52.27034 6500 ft 107 kts 181°
2026-05-03 23:34 -27.40112 -52.27033 6499 ft 107 kts 181°
2026-05-03 23:34 -27.40857 -52.27032 6500 ft 107 kts 181°
2026-05-03 23:35 -27.41602 -52.27031 6500 ft 107 kts 182°
2026-05-03 23:35 -27.42344 -52.27031 6501 ft 107 kts 181°
2026-05-03 23:35 -27.43091 -52.27033 6501 ft 107 kts 182°
2026-05-03 23:35 -27.43838 -52.27036 6496 ft 107 kts 182°
2026-05-03 23:36 -27.44582 -52.27039 6497 ft 107 kts 182°
2026-05-03 23:36 -27.45326 -52.27042 6497 ft 107 kts 182°
2026-05-03 23:36 -27.46070 -52.27046 6497 ft 107 kts 182°
2026-05-03 23:36 -27.46813 -52.27049 6497 ft 107 kts 182°
2026-05-03 23:37 -27.47553 -52.27052 6497 ft 107 kts 182°
2026-05-03 23:37 -27.48298 -52.27061 6497 ft 107 kts 185°
2026-05-03 23:37 -27.48915 -52.27464 6517 ft 104 kts 229°
2026-05-03 23:37 -27.49390 -52.28061 6554 ft 103 kts 225°
2026-05-03 23:38 -27.49903 -52.28648 6522 ft 108 kts 223°
2026-05-03 23:38 -27.50463 -52.29252 6378 ft 117 kts 222°
2026-05-03 23:38 -27.51082 -52.29882 6225 ft 121 kts 220°
2026-05-03 23:38 -27.51725 -52.30495 6097 ft 122 kts 217°
2026-05-03 23:39 -27.52395 -52.31085 5963 ft 123 kts 215°
2026-05-03 23:39 -27.53082 -52.31640 5821 ft 119 kts 212°
2026-05-03 23:39 -27.53736 -52.32120 5668 ft 107 kts 209°
2026-05-03 23:39 -27.54348 -52.32523 5572 ft 99 kts 206°
2026-05-03 23:40 -27.54947 -52.32876 5465 ft 96 kts 204°
2026-05-03 23:40 -27.55549 -52.33190 5358 ft 95 kts 201°
2026-05-03 23:40 -27.56161 -52.33466 5253 ft 95 kts 198°
2026-05-03 23:40 -27.56785 -52.33703 5142 ft 95 kts 195°
2026-05-03 23:41 -27.57422 -52.33896 5029 ft 95 kts 191°
2026-05-03 23:41 -27.58069 -52.34037 4916 ft 95 kts 187°
2026-05-03 23:41 -27.58729 -52.34120 4795 ft 96 kts 182°
2026-05-03 23:41 -27.59394 -52.34135 4675 ft 96 kts 177°
2026-05-03 23:42 -27.60060 -52.34072 4548 ft 97 kts 171°
2026-05-03 23:42 -27.60706 -52.33925 4403 ft 89 kts 164°
2026-05-03 23:42 -27.61278 -52.33704 4276 ft 89 kts 157°
2026-05-03 23:42 -27.61844 -52.33395 4184 ft 94 kts 150°
2026-05-03 23:43 -27.62405 -52.32988 4036 ft 95 kts 143°
2026-05-03 23:43 -27.62907 -52.32517 3864 ft 94 kts 137°
2026-05-03 23:43 -27.63358 -52.31983 3689 ft 94 kts 127°
2026-05-03 23:43 -27.63735 -52.31389 3519 ft 93 kts 123°
2026-05-03 23:44 -27.64083 -52.30824 3327 ft 83 kts 122°
2026-05-03 23:44 -27.64381 -52.30338 3212 ft 73 kts 120°
2026-05-03 23:44 -27.64653 -52.29893 3098 ft 63 kts 118°
2026-05-03 23:44 -27.64909 -52.29472 3012 ft 68 kts 121°
2026-05-03 23:45 -27.65174 -52.29032 2936 ft 66 kts 121°
2026-05-03 23:45 -27.65735 -52.28125 2601 ft 69 kts 109°
2026-05-03 23:45 -27.65984 -52.27670 2521 ft 68 kts 116°
2026-05-03 23:46 -27.66202 -52.27273 2502 ft 45 kts 117°
2026-05-03 23:46 -27.66270 -52.27153 2502 ft 0 kts 118°